Regional Weather Roundup
Issued by NWS Northern Indiana

Home | Current Version | Previous Version | Text Only | Print | Product List | Glossary On
Versions: 1 2 3 4 5 6 7 8 9 10 11 12 13 14 15 16 17 18 19 20 21 22 23 24 25 26 27 28 29 30 31 32 33 34 35 36 37 38 39 40 41 42 43 44 45 46 47 48 49 50
000
ASUS43 KIWX 202110
RWRIWX

KIWX WEATHER ROUNDUP
NATIONAL WEATHER SERVICE NORTHERN INDIANA
400 PM EST SAT DEC 20 2014

NOTE: "FAIR" INDICATES FEW OR NO CLOUDS BELOW 12,000 FEET WITH NO
SIGNIFICANT WEATHER AND/OR OBSTRUCTIONS TO VISIBILITY.

* THESE STATIONS ARE NOT UNDER NWS QUALITY CONTROL. THEY ALSO MAY NOT
  REPORT WEATHER SUCH AS PRECIPITATION OR FOG.

INZ001>027-202200-
NORTHERN INDIANA

CITY           SKY/WX    TMP DP  RH WIND       PRES   REMARKS
GARY*          CLOUDY    34  23  64 W9        30.26R WCI  26
VALPARAISO     CLOUDY    32  24  72 SW6       30.26R WCI  26
MICHIGAN CITY* CLOUDY    32  23  69 SW3       30.26R
LAPORTE*       CLOUDY    34  27  75 SW7       30.25R WCI  28
KNOX*          CLOUDY    32  23  68 W5        30.25R WCI  28
SOUTH BEND     CLOUDY    33  24  69 CALM      30.25R
ELKHART*       CLOUDY    30  27  86 CALM      30.26  FOG
GOSHEN         CLOUDY    31  27  85 CALM      30.25R FOG
MONTICELLO*    CLOUDY    32  26  77 CALM      30.25S
LOGANSPORT*    CLOUDY    32  27  80 CALM      30.27R
ROCHESTER*     PTSUNNY   34  30  86 W6        30.26R WCI  29
WARSAW*        CLOUDY    32  27  80 W5        30.25R WCI  27
ANGOLA*        CLOUDY    30  23  74 NW5       30.23R WCI  25
FORT WAYNE     CLOUDY    32  25  75 SW5       30.25S WCI  27
HUNTINGTON*    CLOUDY    32  25  76 CALM      30.25R
PERU/GRISSOM   CLOUDY    32  30  94 CALM      30.25R
MARION*        CLOUDY    32  26  81 CALM      30.26R

$$
INZ028>050-202200-
CENTRAL INDIANA

CITY           SKY/WX    TMP DP  RH WIND       PRES   REMARKS
LAFAYETTE      CLOUDY    32  24  72 SW3       30.26R
KOKOMO*        PTSUNNY   34  25  69 CALM      30.26R
MUNCIE*        CLOUDY    32  23  69 NW3       30.25R
INDIANAPOLIS   CLOUDY    32  22  66 CALM      30.25R

$$
MIZ043>046-050>051-056>058-064>065-071>073-077>080-202200-
SOUTHWEST LOWER MICHIGAN

CITY           SKY/WX    TMP DP  RH WIND       PRES   REMARKS
BATTLE CREEK   CLOUDY    33  22  63 SW3       30.24R
BENTON HARBOR  CLOUDY    32  26  78 SW7       30.25R WCI  26
COLDWATER*     CLOUDY    31  24  74 W5        30.24R WCI  27
HILLSDALE*     CLOUDY    30  22  71 CALM      30.23R
HOLLAND        MIX PCPN  31  26  82 SE3       30.26R
GRAND RAPIDS   CLOUDY    32  23  69 CALM      30.25R
KALAMAZOO      CLOUDY    31  24  75 CALM      30.25R
STURGIS*       CLOUDY    28  27  93 W3        30.24R FOG
THREE RIVERS*  LGT SNOW  31  27  86 CALM      30.25S

$$
OHZ001>008-015>018-024>025-202200-
NORTHWEST OHIO

CITY           SKY/WX    TMP DP  RH WIND       PRES   REMARKS
WAUSEON*       CLOUDY    30  21  69 W3        30.25S
DEFIANCE       CLOUDY    32  22  66 CALM      30.26R
FINDLAY        CLOUDY    32  23  69 S5        30.24S WCI  27
TOLEDO EXPRESS CLOUDY    30  22  72 CALM      30.26R
TOLEDO METCALF CLOUDY    32  21  64 S5        30.27R WCI  27
LIMA           CLOUDY    33  22  63 SW5       30.24S WCI  29

$$
AND FOR LAKE MICHIGAN COASTAL AND OPEN LAKE BUOY OBSERVATIONS

STATION/POSITION TEMP    WIND        PRES    VSBY  WAVE
                 AIR SEA DIR/SP/G                  HT/PER
                 (F)     (DEG/KT/KT) (MB)    (MI)  (FT/S)
CALUMET HARBOR    33     190/  6/ 10 1022.9F
SAINT JOSEPH      34     220/ 10/ 12 1024.4F
MICHIGAN CITY CG     37                N/A    3 1/2  0

$$
&&


USA.gov is the U.S. government's official web portal to all federal, state and local government web resources and services.